KC1OEK-13 Weather Reports


time (UTC)temp
F
wind
direction
speed
knots
gust
knots
rain 1hr
in
rain 24hr
in
rain mn
in
humidity
%
barometer
mb
20260504150947 63 358 0.9 7.8 0.00 0.00 0.00 38 1012.9
20260504150444 63 234 6.1 7.8 0.00 0.00 0.00 37 1013.0
20260504140910 61 268 7.0 12.2 0.00 0.00 0.00 38 1013.2
20260504140406 61 175 7.0 8.7 0.00 0.00 0.00 38 1013.4
20260504130332 56 189 1.7 6.1 0.00 0.00 0.00 51 1014.0
20260504120255 46 18 0.0 0.0 0.00 0.00 0.00 76 1014.4
20260504110219 35 17 0.0 0.0 0.00 0.00 0.00 96 1014.5
20260504100137 32 13 0.0 0.0 0.00 0.00 0.00 96 1014.6
20260504081530 33 18 0.0 0.0 0.00 0.00 0.00 93 1013.8
20260504081025 33 18 0.0 0.0 0.00 0.00 0.00 93 1013.8
20260504080522 33 18 0.0 0.0 0.00 0.00 0.00 93 1013.7
20260504050334 36 19 0.0 0.0 0.00 0.00 0.00 82 1013.7
20260504045832 36 19 0.0 0.0 0.00 0.00 0.00 82 1013.7
20260504045326 36 19 0.0 0.0 0.00 0.00 0.00 81 1013.7
20260504044823 36 19 0.0 0.0 0.00 0.00 0.00 81 1013.9
20260504044321 36 19 0.0 0.0 0.00 0.00 0.00 81 1013.6
20260504043818 36 19 0.0 0.0 0.00 0.00 0.00 81 1013.6
20260504043315 36 17 0.0 0.0 0.00 0.00 0.00 80 1013.8
20260504042812 36 16 0.0 0.0 0.00 0.00 0.00 80 1013.7
20260504042309 36 16 0.0 0.0 0.00 0.00 0.00 80 1013.7
20260504041805 36 16 0.0 0.0 0.00 0.00 0.00 80 1013.7
20260504041301 36 16 0.0 0.0 0.00 0.00 0.00 79 1013.5
20260504040758 37 16 0.0 0.0 0.00 0.00 0.00 78 1013.4
20260504040255 37 16 0.0 0.0 0.00 0.00 0.00 77 1013.5
20260504035750 37 16 0.0 0.0 0.00 0.00 0.00 76 1013.3
20260504035248 37 16 0.0 0.0 0.00 0.00 0.00 77 1013.4
20260504034745 37 16 0.0 0.0 0.00 0.00 0.00 76 1013.4
20260504034243 37 16 0.0 0.0 0.00 0.00 0.00 76 1013.6
20260504033740 37 16 0.0 0.0 0.00 0.00 0.00 75 1013.5
20260504033238 37 16 0.0 0.0 0.00 0.00 0.00 74 1013.4
20260504032734 38 16 0.0 0.0 0.00 0.00 0.00 73 1013.3
20260504032231 38 16 0.0 0.0 0.00 0.00 0.00 72 1013.3
20260504031728 38 16 0.0 0.0 0.00 0.00 0.00 72 1013.3
20260504031226 39 16 0.0 0.0 0.00 0.00 0.00 71 1013.5
20260504030721 39 16 0.0 0.0 0.00 0.00 0.00 69 1013.2
20260504030219 39 16 0.0 0.0 0.00 0.00 0.00 69 1013.2
20260504025715 39 16 0.0 0.0 0.00 0.00 0.00 69 1013.5
20260504025212 39 16 0.0 0.0 0.00 0.00 0.00 69 1013.1
20260504024709 40 16 0.0 0.0 0.00 0.00 0.00 68 1013.2
20260504024205 40 16 0.0 0.0 0.00 0.00 0.00 67 1013.2
20260504023702 41 16 0.0 0.0 0.00 0.00 0.00 66 1013.1
20260504023158 41 16 0.0 0.0 0.00 0.00 0.00 66 1013.1
20260504022654 40 16 0.0 0.0 0.00 0.00 0.00 66 1013.1
20260504022150 40 16 0.0 0.0 0.00 0.00 0.00 65 1013.1
20260504021649 41 16 0.0 0.0 0.00 0.00 0.00 63 1013.3
20260504021145 41 16 0.0 0.0 0.00 0.00 0.00 63 1013.2
20260504020642 41 16 0.0 0.0 0.00 0.00 0.00 63 1013.1
20260504020138 42 16 0.0 0.0 0.00 0.00 0.00 62 1013.3
20260504015635 42 16 0.0 0.0 0.00 0.00 0.00 60 1013.0
20260504015131 42 16 0.0 0.0 0.00 0.00 0.00 60 1013.1
20260504014627 42 16 0.0 0.9 0.00 0.00 0.00 60 1013.0
20260504014124 43 16 0.0 0.0 0.00 0.00 0.00 58 1012.9
20260504013622 43 16 0.0 0.0 0.00 0.00 0.00 57 1012.8
20260504013119 44 16 0.0 0.0 0.00 0.00 0.00 55 1012.8
20260504012616 44 16 0.0 0.0 0.00 0.00 0.00 54 1012.9
20260504012114 45 16 0.0 0.0 0.00 0.00 0.00 53 1012.8
20260504011610 45 16 0.0 0.0 0.00 0.00 0.00 53 1012.9
20260504011107 46 16 0.0 0.0 0.00 0.00 0.00 51 1012.4
20260504010602 46 16 0.0 0.0 0.00 0.00 0.00 51 1012.4
20260504010059 47 16 0.0 0.0 0.00 0.00 0.00 51 1012.3
20260504005555 47 16 0.0 0.0 0.00 0.00 0.00 50 1012.3
20260504005053 48 16 0.0 0.0 0.00 0.00 0.00 48 1012.1
20260504004551 48 16 0.0 0.0 0.00 0.00 0.00 48 1012.2
20260504004047 48 16 0.0 0.0 0.00 0.00 0.00 47 1012.1
20260504003543 49 16 0.0 0.0 0.00 0.00 0.00 47 1012.2
20260504003040 49 16 0.0 0.0 0.00 0.00 0.00 45 1012.0
20260504002537 50 16 0.0 0.0 0.00 0.00 0.00 44 1012.0
20260504002035 50 16 0.0 0.0 0.00 0.00 0.00 43 1011.8
20260504001533 50 16 0.0 0.9 0.00 0.00 0.00 42 1011.8
20260504001028 50 16 0.0 0.0 0.00 0.00 0.00 43 1011.6
20260504000526 51 16 0.0 0.0 0.00 0.00 0.00 43 1011.7
20260504000023 51 16 0.0 0.0 0.00 0.00 0.00 41 1011.5
20260503235521 51 13 0.0 0.0 0.00 0.00 0.00 42 1011.5
20260503235018 52 12 0.0 0.0 0.00 0.00 0.00 41 1011.5
20260503234515 52 11 0.0 0.0 0.00 0.00 0.00 37 1011.4
20260503234014 52 6 0.0 1.7 0.00 0.00 0.00 35 1011.3
20260503233510 52 17 0.0 0.9 0.00 0.00 0.00 36 1011.2
20260503233006 53 16 0.9 0.9 0.00 0.00 0.00 38 1011.3
20260503232503 53 13 0.0 0.9 0.00 0.00 0.00 34 1011.1
20260503232001 53 291 3.5 6.1 0.00 0.00 0.00 33 1011.1
20260503231458 54 14 0.0 0.9 0.00 0.00 0.00 35 1011.3
20260503230954 54 11 0.0 2.6 0.00 0.00 0.00 34 1011.0
20260503230451 54 11 0.0 2.6 0.00 0.00 0.00 33 1010.9
20260503225949 55 288 1.7 2.6 0.00 0.00 0.00 34 1011.0
20260503225445 56 39 0.9 2.6 0.00 0.00 0.00 34 1011.1
20260503224941 57 11 0.0 1.7 0.00 0.00 0.00 33 1011.2
20260503224438 57 2 0.0 2.6 0.00 0.00 0.00 33 1011.0
20260503223936 57 8 1.7 2.6 0.00 0.00 0.00 32 1011.0
20260503223433 57 301 0.9 4.3 0.00 0.00 0.00 32 1011.1
20260503222928 56 43 0.9 2.6 0.00 0.00 0.00 32 1011.0
20260503222427 57 266 2.6 5.2 0.00 0.00 0.00 32 1010.9
20260503221925 56 257 3.5 7.8 0.00 0.00 0.00 33 1011.0
20260503221423 56 29 2.6 4.3 0.00 0.00 0.00 33 1011.0
20260503220920 56 229 2.6 6.1 0.00 0.00 0.00 33 1011.0
20260503220416 56 40 2.6 6.1 0.00 0.00 0.00 34 1011.0
20260503215913 56 27 5.2 7.8 0.00 0.00 0.00 33 1011.0
20260503215410 56 359 0.9 7.8 0.00 0.00 0.00 35 1011.1
20260503214908 56 64 0.9 7.0 0.00 0.00 0.00 33 1010.9
20260503214405 56 355 3.5 12.2 0.00 0.00 0.00 34 1011.1
20260503213902 56 283 4.3 12.2 0.00 0.00 0.00 33 1011.0
20260503213400 56 287 4.3 8.7 0.00 0.00 0.00 34 1010.9
20260503212856 55 291 3.5 5.2 0.00 0.00 0.00 34 1010.8
20260503212355 54 28 4.3 9.6 0.00 0.00 0.00 34 1011.0
20260503211851 54 353 6.1 8.7 0.00 0.00 0.00 35 1011.2
20260503211348 54 256 4.3 6.1 0.00 0.00 0.00 37 1011.0
20260503210843 56 320 4.3 7.8 0.00 0.00 0.00 34 1011.0
20260503210341 56 312 5.2 13.9 0.00 0.00 0.00 35 1010.9
20260503205836 56 29 7.8 11.3 0.00 0.00 0.00 35 1011.1
20260503205332 55 32 4.3 11.3 0.00 0.00 0.00 34 1011.0
20260503204829 55 290 4.3 7.0 0.00 0.00 0.00 35 1010.9
20260503204327 55 0 1.7 8.7 0.00 0.00 0.00 35 1011.1
20260503203824 56 309 3.5 11.3 0.00 0.00 0.00 35 1010.9
20260503203321 56 11 1.7 6.1 0.00 0.00 0.00 35 1010.9
20260503202818 56 285 3.5 7.0 0.00 0.00 0.00 36 1011.1
20260503202316 55 57 1.7 12.2 0.00 0.00 0.00 37 1011.0
20260503201814 56 294 3.5 6.1 0.00 0.00 0.00 37 1011.2
20260503201310 56 233 4.3 7.8 0.00 0.00 0.00 36 1011.0
20260503200808 55 93 0.9 2.6 0.00 0.00 0.00 37 1011.0
20260503200303 55 18 1.7 13.9 0.00 0.00 0.00 36 1010.9
20260503195801 55 284 2.6 7.0 0.00 0.00 0.00 36 1011.0
20260503195258 55 8 0.9 6.1 0.00 0.00 0.00 36 1011.0
20260503194755 54 249 3.5 5.2 0.00 0.00 0.00 37 1011.1
20260503194251 53 345 9.6 13.0 0.00 0.00 0.00 36 1011.3
20260503193747 54 234 3.5 11.3 0.00 0.00 0.00 35 1011.0
20260503193243 54 339 7.0 11.3 0.00 0.00 0.00 36 1011.2
20260503192739 53 180 5.2 13.0 0.00 0.00 0.00 36 1011.1
20260503192234 53 243 3.5 6.1 0.00 0.00 0.00 37 1011.2
20260503191732 53 346 0.9 6.1 0.00 0.00 0.00 40 1010.9
20260503191229 52 347 2.6 7.8 0.00 0.00 0.00 38 1011.2
20260503190726 54 54 3.5 7.0 0.00 0.00 0.00 36 1011.3
20260503190222 53 235 7.8 12.2 0.00 0.00 0.00 36 1011.1
20260503185719 54 232 8.7 9.6 0.00 0.00 0.00 36 1011.0
20260503185215 55 231 0.9 7.0 0.00 0.00 0.00 37 1011.0
20260503184709 54 293 3.5 6.1 0.00 0.00 0.00 40 1011.1
20260503184206 53 327 4.3 9.6 0.00 0.00 0.00 37 1011.2
20260503183703 52 6 4.3 9.6 0.00 0.00 0.00 37 1011.3
20260503183200 53 342 0.9 2.6 0.00 0.00 0.00 39 1011.2
20260503182658 53 256 4.3 9.6 0.00 0.00 0.00 38 1011.1
20260503182156 53 42 3.5 11.3 0.00 0.00 0.00 37 1011.2
20260503181652 53 261 8.7 12.2 0.00 0.00 0.00 37 1011.0
20260503181149 53 2 0.9 7.0 0.00 0.00 0.00 38 1010.8
20260503180646 54 262 4.3 6.1 0.00 0.00 0.00 37 1011.1
20260503180144 53 356 6.1 18.2 0.00 0.00 0.00 37 1011.0
20260503175641 53 207 5.2 13.0 0.00 0.00 0.00 37 1011.0
20260503175138 54 27 0.9 5.2 0.00 0.00 0.00 37 1010.8
20260503174634 53 334 5.2 9.6 0.00 0.00 0.00 35 1010.9
20260503174132 52 353 7.0 11.3 0.00 0.00 0.00 37 1011.0
20260503173627 51 12 6.1 12.2 0.00 0.00 0.00 37 1011.0
20260503173124 52 233 2.6 7.8 0.00 0.00 0.00 38 1011.2
20260503172620 51 237 4.3 6.1 0.00 0.00 0.00 42 1011.1
20260503172118 50 272 3.5 4.3 0.00 0.00 0.00 42 1011.1
20260503171614 51 3 3.5 9.6 0.00 0.00 0.00 42 1011.1
20260503171112 52 354 7.8 12.2 0.00 0.00 0.00 41 1011.3
20260503170609 50 211 1.7 2.6 0.00 0.00 0.00 43 1011.1
20260503170105 52 316 0.9 7.8 0.00 0.00 0.00 42 1011.3